CMA CGM Aristote — MRPN4 — position and weather

sailwx.info

Track history (hours):
 
Tides and Currents Weather Stations Pressure Air Temp Water Temp Dewpoint Dewpoint Depression Visibility Wind Speed Wind Dir Waves Ship Positions

CMA CGM Aristote

Last reported at 2014-Oct-25 16:31 UTC. Time now 2014-Oct-25 16:54 UTC.
Position N 51°53' E 004°24'.

Length 170 m; draft 8.9 m.

Type: Ship (hazmat cat A). MMSI: 235054581.

Date/timePositionNaut miles runAvg speedWind from/ knotsBaromVisibWave heightAir tempDewpointWater temp
2014-Oct-25 16:31N 51°53' E 004°24'0 0.0
2014-Oct-25 15:31N 51°53' E 004°24'0 0.0
2014-Oct-25 14:31N 51°53' E 004°24'0 0.0
2014-Oct-25 13:31N 51°53' E 004°24'0 0.0
2014-Oct-25 12:31N 51°53' E 004°24'0 0.0
2014-Oct-25 11:31N 51°53' E 004°24'0 0.0
2014-Oct-25 10:31N 51°53' E 004°24'0 0.0
2014-Oct-25 09:31N 51°53' E 004°24'0 0.0
2014-Oct-25 08:31N 51°53' E 004°24'0 0.0
2014-Oct-25 07:31N 51°53' E 004°24'0 0.0
2014-Oct-25 06:31N 51°53' E 004°24'0 0.0
2014-Oct-25 05:31N 51°53' E 004°24'0 0.0
2014-Oct-25 04:31N 51°53' E 004°24'0 0.0
2014-Oct-25 03:31N 51°53' E 004°24'0 0.0
2014-Oct-25 02:31N 51°53' E 004°24'0 0.0
2014-Oct-25 01:31N 51°53' E 004°24'0 0.0
2014-Oct-25 00:31N 51°53' E 004°24'0 0.0
2014-Oct-24 23:31N 51°53' E 004°24'0 0.0
2014-Oct-24 22:31N 51°53' E 004°24'0 0.0
2014-Oct-24 21:31N 51°53' E 004°24'0 0.0
2014-Oct-24 20:31N 51°53' E 004°24'0 0.0
2014-Oct-24 19:31N 51°53' E 004°24'0 0.0
2014-Oct-24 18:31N 51°53' E 004°24'0 0.0
2014-Oct-24 17:31N 51°53' E 004°24'0 0.0
2014-Oct-24 16:31N 51°53' E 004°24'0 0.0
2014-Oct-24 15:31N 51°53' E 004°24'0 0.0
2014-Oct-24 14:31N 51°53' E 004°24'0 0.0
2014-Oct-24 13:31N 51°53' E 004°24'0 0.0
2014-Oct-24 12:31N 51°53' E 004°24'1 1.3
2014-Oct-24 11:34N 51°54' E 004°23'7 7.1
2014-Oct-24 10:33N 51°56' E 004°12'10 9.9
2014-Oct-24 09:33N 52°00' E 003°57'10 9.5
2014-Oct-24 08:33N 51°58' E 003°42'1413.8
2014-Oct-24 07:33N 51°55' E 003°20'4113.8
2014-Oct-24 04:33N 51°34' E 002°22'1514.8
2014-Oct-24 03:33N 51°22' E 002°09'1514.8
2014-Oct-24 02:33N 51°11' E 001°54'1919.0
2014-Oct-24 01:34N 50°58' E 001°32'1918.6
2014-Oct-24 00:33N 50°41' E 001°17'1917.4
2014-Oct-23 23:29N 50°30' E 000°54'1617.7
2014-Oct-23 22:33N 50°27' E 000°29'33616.8
2014-Oct-23 02:33N 47°23' W 006°40'46917.3
2014-Oct-21 23:22N 39°55' W 009°51'1518.1
2014-Oct-21 22:33N 39°40' W 009°51'1818.0
2014-Oct-21 21:32N 39°22' W 009°52'1818.2
2014-Oct-21 20:34N 39°04' W 009°52'1818.1
2014-Oct-21 19:33N 38°46' W 009°52'1818.0
2014-Oct-21 18:33N 38°28' W 009°51'1818.2
2014-Oct-21 17:33N 38°10' W 009°51'1817.6
2014-Oct-21 16:33N 37°53' W 009°45'1818.4
2014-Oct-21 15:33N 37°37' W 009°34'1818.0
2014-Oct-21 14:33N 37°19' W 009°28'1817.8
2014-Oct-21 13:33N 37°02' W 009°22'1716.9
2014-Oct-21 12:33N 36°47' W 009°12'1917.4
2014-Oct-21 11:28N 36°40' W 008°51'1617.7
2014-Oct-21 10:33N 36°34' W 008°32'1817.6
2014-Oct-21 09:33N 36°28' W 008°11'1717.2
2014-Oct-21 08:33N 36°23' W 007°51'1717.3
2014-Oct-21 07:33N 36°18' W 007°30'10217.1
2014-Oct-21 01:33N 36°01' W 005°25'7 2.3
2014-Oct-20 22:26N 36°08' W 005°25'0 0.0
2014-Oct-20 21:32N 36°08' W 005°25'0 0.0
2014-Oct-20 18:05N 36°08' W 005°25'1 1.8
2014-Oct-20 17:33N 36°08' W 005°24'5 4.8
2014-Oct-20 16:34N 36°04' W 005°22'1110.7
2014-Oct-20 15:33N 35°57' W 005°32'3617.3
2014-Oct-20 13:29N 35°51' W 006°16'59417.4
2014-Oct-19 03:23N 28°11' W 013°40'  
Track history (hours):
 
Tides and Currents Weather Stations Pressure Air Temp Water Temp Dewpoint Dewpoint Depression Visibility Wind Speed Wind Dir Waves Ship Positions

CMA CGM Aristote

Last reported at 2014-Oct-25 16:31 UTC. Time now 2014-Oct-25 16:54 UTC.
Position N 51°53' E 004°24'.

Length 170 m; draft 8.9 m.

Type: Ship (hazmat cat A). MMSI: 235054581.

Date/timePositionNaut miles runAvg speedWind from/ knotsBaromVisibWave heightAir tempDewpointWater temp
2014-Oct-25 16:31N 51°53' E 004°24'0 0.0
2014-Oct-25 15:31N 51°53' E 004°24'0 0.0
2014-Oct-25 14:31N 51°53' E 004°24'0 0.0
2014-Oct-25 13:31N 51°53' E 004°24'0 0.0
2014-Oct-25 12:31N 51°53' E 004°24'0 0.0
2014-Oct-25 11:31N 51°53' E 004°24'0 0.0
2014-Oct-25 10:31N 51°53' E 004°24'0 0.0
2014-Oct-25 09:31N 51°53' E 004°24'0 0.0
2014-Oct-25 08:31N 51°53' E 004°24'0 0.0
2014-Oct-25 07:31N 51°53' E 004°24'0 0.0
2014-Oct-25 06:31N 51°53' E 004°24'0 0.0
2014-Oct-25 05:31N 51°53' E 004°24'0 0.0
2014-Oct-25 04:31N 51°53' E 004°24'0 0.0
2014-Oct-25 03:31N 51°53' E 004°24'0 0.0
2014-Oct-25 02:31N 51°53' E 004°24'0 0.0
2014-Oct-25 01:31N 51°53' E 004°24'0 0.0
2014-Oct-25 00:31N 51°53' E 004°24'0 0.0
2014-Oct-24 23:31N 51°53' E 004°24'0 0.0
2014-Oct-24 22:31N 51°53' E 004°24'0 0.0
2014-Oct-24 21:31N 51°53' E 004°24'0 0.0
2014-Oct-24 20:31N 51°53' E 004°24'0 0.0
2014-Oct-24 19:31N 51°53' E 004°24'0 0.0
2014-Oct-24 18:31N 51°53' E 004°24'0 0.0
2014-Oct-24 17:31N 51°53' E 004°24'0 0.0
2014-Oct-24 16:31N 51°53' E 004°24'0 0.0
2014-Oct-24 15:31N 51°53' E 004°24'0 0.0
2014-Oct-24 14:31N 51°53' E 004°24'0 0.0
2014-Oct-24 13:31N 51°53' E 004°24'0 0.0
2014-Oct-24 12:31N 51°53' E 004°24'1 1.3
2014-Oct-24 11:34N 51°54' E 004°23'7 7.1
2014-Oct-24 10:33N 51°56' E 004°12'10 9.9
2014-Oct-24 09:33N 52°00' E 003°57'10 9.5
2014-Oct-24 08:33N 51°58' E 003°42'1413.8
2014-Oct-24 07:33N 51°55' E 003°20'4113.8
2014-Oct-24 04:33N 51°34' E 002°22'1514.8
2014-Oct-24 03:33N 51°22' E 002°09'1514.8
2014-Oct-24 02:33N 51°11' E 001°54'1919.0
2014-Oct-24 01:34N 50°58' E 001°32'1918.6
2014-Oct-24 00:33N 50°41' E 001°17'1917.4
2014-Oct-23 23:29N 50°30' E 000°54'1617.7
2014-Oct-23 22:33N 50°27' E 000°29'33616.8
2014-Oct-23 02:33N 47°23' W 006°40'46917.3
2014-Oct-21 23:22N 39°55' W 009°51'1518.1
2014-Oct-21 22:33N 39°40' W 009°51'1818.0
2014-Oct-21 21:32N 39°22' W 009°52'1818.2
2014-Oct-21 20:34N 39°04' W 009°52'1818.1
2014-Oct-21 19:33N 38°46' W 009°52'1818.0
2014-Oct-21 18:33N 38°28' W 009°51'1818.2
2014-Oct-21 17:33N 38°10' W 009°51'1817.6
2014-Oct-21 16:33N 37°53' W 009°45'1818.4
2014-Oct-21 15:33N 37°37' W 009°34'1818.0
2014-Oct-21 14:33N 37°19' W 009°28'1817.8
2014-Oct-21 13:33N 37°02' W 009°22'1716.9
2014-Oct-21 12:33N 36°47' W 009°12'1917.4
2014-Oct-21 11:28N 36°40' W 008°51'1617.7
2014-Oct-21 10:33N 36°34' W 008°32'1817.6
2014-Oct-21 09:33N 36°28' W 008°11'1717.2
2014-Oct-21 08:33N 36°23' W 007°51'1717.3
2014-Oct-21 07:33N 36°18' W 007°30'10217.1
2014-Oct-21 01:33N 36°01' W 005°25'7 2.3
2014-Oct-20 22:26N 36°08' W 005°25'0 0.0
2014-Oct-20 21:32N 36°08' W 005°25'0 0.0
2014-Oct-20 18:05N 36°08' W 005°25'1 1.8
2014-Oct-20 17:33N 36°08' W 005°24'5 4.8
2014-Oct-20 16:34N 36°04' W 005°22'1110.7
2014-Oct-20 15:33N 35°57' W 005°32'3617.3
2014-Oct-20 13:29N 35°51' W 006°16'59417.4
2014-Oct-19 03:23N 28°11' W 013°40'  

Dump ship's entire track history